Location: Clarion
(42.7316°N, 93.7330°W)
Time: 09:29:41
(UTC+00:00)

Meteor 1-31 Rocket - Pass Details

Date: 22 April 2026
Orbit: 454 x 472 km, 97.6° (Epoch: 17 May)

Event Time Altitude Azimuth Distance (km) Brightness Sun altitude
Exits shadow 02:42:30 - 197° (SSW) 1,898 5.4 -16.9°
Reaches altitude 10° 02:43:12 10° 202° (SSW) 1,635 5.1 -17.0°
Maximum altitude 02:46:17 28° 263° (W) 917 4.4 -17.5°
Drops below altitude 10° 02:49:22 10° 324° (NW) 1,645 6.4 -18.0°
Sets 02:51:38 0° 337° (NNW) 2,526 7.3 -18.3°
